Wind_Speed
2 1 1 2 3 4 5 6 7 7 8 9 10 11 12 13 15 17 20 23 24 25 25 25 25 24 23 22 21 22 20 15 11 9 9 9 10 9 10 10 9 10 11 11 12 12 12 11 10 10 10 11 10 9 10 8 8 7 7 5 2 2 4 5 4 2 5 7 10 14 14 13 12 13 14 13 12 11 9 4 4 6 9 14 19 20 21 25
4 3 2 2 2 3 4 5 6 7 8 9 10 11 12 13 14 15 18 22 23 24 25 25 24 24 23 21 20 20 19 14 9 9 9 9 9 9 9 9 10 10 11 12 12 12 12 12 11 11 12 12 11 11 10 9 9 8 9 6 2 4 6 6 5 5 7 9 10 11 12 13 12 12 14 11 8 8 1 5 6 6 8 14 21 22 23 26
5 5 4 3 3 3 4 6 7 8 8 9 10 11 12 12 13 15 17 21 23 24 26 25 24 24 22 21 19 19 18 13 8 9 9 9 9 9 9 10 10 10 11 11 11 11 10 11 12 12 13 13 12 12 12 11 9 10 11 4 6 10 9 9 9 9 9 7 8 9 10 13 14 13 14 11 5 4 8 10 11 14 15 18 22 23 25 28
7 7 6 6 5 4 5 6 8 9 9 10 11 11 12 12 13 14 16 20 22 24 26 26 24 23 21 20 18 18 16 10 8 9 9 10 9 10 11 11 11 10 11 11 11 11 10 11 10 11 13 13 13 14 13 12 11 13 9 3 10 12 10 13 13 12 10 6 6 9 10 13 16 14 14 10 3 2 11 12 16 20 23 25 27 27 29 31
8 8 8 8 8 6 6 7 8 9 10 11 11 12 13 13 13 14 16 20 22 24 27 26 25 23 21 20 17 17 15 7 6 9 10 11 12 12 13 13 12 12 13 13 12 12 11 11 11 12 12 13 14 13 13 12 13 14 10 8 10 10 12 15 14 12 8 4 5 10 10 12 15 15 15 7 2 5 12 14 19 23 27 30 32 32 33 34
8 8 9 9 10 9 8 8 9 10 11 12 12 13 14 14 13 14 15 19 22 24 27 27 26 24 21 20 16 16 14 6 5 10 11 13 15 16 16 16 15 15 16 16 15 13 13 13 12 13 13 14 13 12 13 13 15 12 9 12 11 11 15 15 13 11 6 5 6 10 11 12 13 13 12 7 4 10 16 17 22 26 30 33 35 36 36 37
8 8 9 10 11 11 10 10 11 11 11 12 12 13 15 15 14 14 14 18 21 23 27 28 26 24 21 19 16 15 12 6 6 9 12 15 17 17 17 17 17 18 20 20 18 16 15 15 15 15 15 15 14 12 13 15 15 7 7 15 15 13 15 13 12 8 5 7 7 8 11 13 12 10 10 9 8 17 21 21 25 30 33 35 36 36 36 36
9 9 9 10 11 12 11 12 12 12 12 13 13 13 15 15 15 14 14 18 21 23 26 27 25 23 20 18 15 13 11 6 7 9 12 15 17 17 17 18 19 21 22 21 21 19 17 16 16 17 16 16 14 14 16 16 14 9 11 17 17 14 13 12 9 6 8 10 8 7 12 14 12 11 11 10 13 22 24 25 31 34 35 35 35 35 35 35
11 10 10 11 11 12 12 13 14 13 13 14 14 13 15 16 15 14 14 17 20 23 25 26 24 20 17 16 13 12 9 6 7 9 11 15 17 17 17 18 20 21 21 22 23 21 19 19 18 18 18 16 14 15 18 15 11 13 16 14 15 15 13 12 7 7 12 12 9 8 12 14 10 13 14 11 17 26 27 30 35 37 36 35 33 33 33 33
13 12 12 12 12 12 12 14 14 14 14 15 15 14 15 16 15 14 14 17 20 22 25 25 21 17 15 14 12 11 9 6 6 7 11 15 17 17 17 18 21 21 21 22 22 20 20 20 20 19 18 16 16 17 18 14 12 16 16 12 14 14 13 12 7 11 18 15 12 11 14 15 12 13 13 13 22 29 30 33 37 37 35 33 30 30 31 32
14 13 13 13 13 13 13 14 15 15 15 16 16 16 15 16 16 15 15 17 19 21 25 24 19 15 13 13 11 9 8 6 5 7 10 15 17 17 17 19 20 20 21 22 21 19 20 21 20 20 19 18 19 19 18 16 16 17 14 13 14 14 14 10 9 16 20 17 16 16 16 16 12 8 10 15 25 31 33 35 36 35 32 29 27 28 29 29
15 15 14 14 14 14 14 15 15 15 16 16 17 17 16 17 17 16 16 17 19 21 24 24 18 13 12 11 9 8 7 5 4 6 10 14 17 17 17 20 20 20 22 22 20 19 20 21 20 20 19 19 19 19 19 17 18 18 15 12 11 15 14 9 13 20 21 19 19 20 16 12 9 8 14 22 30 34 35 34 34 32 28 25 26 27 28 27
16 16 15 15 15 15 15 16 16 16 16 17 17 18 17 17 17 17 17 17 19 20 22 23 17 11 11 10 9 8 6 4 5 7 10 14 17 17 17 20 21 21 23 23 22 20 20 21 21 20 20 20 20 19 18 18 19 17 16 12 6 9 12 11 17 23 24 19 18 21 16 8 9 15 21 22 28 36 35 33 35 31 26 25 27 28 27 26
18 17 16 16 16 17 17 17 17 17 17 17 18 18 18 18 18 18 18 18 19 20 22 22 15 9 10 10 8 7 6 4 5 7 11 13 17 18 18 20 23 24 25 24 23 22 22 22 22 21 20 21 21 20 19 19 19 16 13 8 3 3 7 14 23 23 23 19 18 21 16 11 13 17 22 21 27 35 32 34 36 29 25 26 27 27 27 27
19 19 18 17 18 18 18 18 18 18 18 18 18 19 19 18 18 19 19 18 19 20 21 21 14 9 9 9 7 6 6 5 6 9 11 13 16 19 19 21 23 26 26 25 24 24 24 24 23 22 21 21 21 20 19 18 18 14 8 3 5 6 6 15 24 22 22 22 20 21 18 18 18 16 22 29 31 31 30 35 35 27 25 27 27 27 27 27
21 21 20 19 19 19 20 20 19 19 19 19 19 20 20 19 19 19 19 19 20 20 22 20 13 9 8 8 8 6 6 6 7 10 12 13 16 19 21 21 24 27 26 25 26 24 24 24 23 22 22 22 21 20 19 15 11 7 7 8 10 11 10 12 21 25 24 22 23 23 21 22 21 20 26 33 33 30 32 35 30 26 27 27 26 26 26 28
22 22 22 21 21 21 21 21 21 21 21 21 21 20 20 20 19 19 19 19 19 20 21 18 11 8 8 9 8 6 6 7 8 10 12 15 17 20 22 23 25 27 25 26 26 24 25 24 23 23 22 22 21 20 18 12 8 12 17 19 17 16 15 13 17 24 25 25 26 21 16 17 21 24 29 34 33 32 34 32 25 25 27 26 25 25 26 28
23 24 23 23 23 23 23 23 23 22 22 22 22 22 22 21 20 20 20 19 19 20 19 16 11 9 9 8 7 6 6 8 9 11 13 15 18 20 23 25 26 27 26 26 26 26 25 24 23 22 18 18 22 20 16 13 14 20 22 21 21 19 16 14 13 19 27 29 23 15 12 16 20 24 30 33 32 33 32 27 23 25 25 23 23 24 25 28
25 25 25 25 25 25 25 24 24 24 24 24 23 23 23 22 22 21 19 18 19 20 18 16 12 9 10 9 6 6 7 8 10 12 13 16 18 20 23 25 27 28 27 25 26 27 24 23 22 18 15 18 23 21 18 19 21 22 22 22 23 21 17 13 11 19 28 24 16 16 19 20 20 22 31 34 33 32 27 22 25 25 24 23 23 25 27 31
26 26 26 26 27 27 27 26 26 26 25 25 25 24 24 23 22 21 19 17 18 19 17 17 12 10 10 9 6 7 8 9 11 12 14 16 18 21 23 25 28 28 28 27 27 25 24 22 19 19 20 21 23 21 21 22 22 23 24 25 25 22 18 13 11 19 25 21 18 21 26 28 24 22 30 34 32 28 21 22 27 25 24 26 26 29 31 35
27 28 28 28 28 29 28 28 28 27 27 27 27 26 26 26 25 24 23 20 19 20 20 19 13 11 10 8 6 8 8 10 12 13 15 17 19 22 24 27 30 29 28 29 27 25 24 20 18 20 22 22 23 22 22 23 23 24 25 26 25 20 19 17 16 18 21 24 23 24 34 36 26 21 28 31 28 22 20 25 27 24 24 27 30 33 34 35
28 29 29 29 29 30 30 29 29 28 28 28 27 27 27 27 26 26 28 25 22 21 21 20 14 13 10 8 7 8 9 11 13 13 15 17 19 23 26 29 31 30 29 28 26 26 24 20 21 23 23 24 23 22 23 24 24 24 24 24 21 19 22 19 15 18 23 29 28 28 37 34 23 23 27 28 25 20 23 27 24 22 25 28 32 33 34 34
30 30 30 30 30 31 31 30 30 29 28 28 27 27 27 27 27 27 28 27 25 22 21 18 14 14 10 8 8 9 10 11 13 14 15 17 19 23 27 30 30 30 30 28 25 25 23 21 24 26 24 23 23 23 24 25 24 20 21 22 20 23 26 19 18 23 28 32 28 26 31 25 21 24 23 24 23 21 24 25 22 22 25 30 32 31 32 33
32 31 31 31 31 31 31 31 30 29 29 28 27 27 28 27 27 27 27 28 28 25 21 16 14 15 10 9 10 11 10 10 13 14 14 16 20 24 26 29 29 29 30 29 26 26 26 26 27 25 23 23 23 24 25 25 24 20 22 25 24 27 28 24 27 31 31 26 19 23 27 19 17 21 19 20 21 22 23 21 20 23 27 31 30 29 32 33
33 33 32 32 31 32 32 31 31 30 29 28 27 28 27 27 27 27 28 28 28 26 20 14 14 16 12 10 11 12 11 13 13 13 14 17 21 24 26 28 28 28 29 28 26 27 29 28 26 24 24 24 24 24 24 26 25 21 22 26 26 27 28 28 30 32 30 18 12 20 21 11 11 14 17 19 19 21 20 17 20 26 32 32 30 30 33 35
34 34 33 32 32 33 32 32 31 30 29 28 28 28 27 27 26 26 28 25 24 24 16 11 12 14 13 12 11 11 12 13 12 14 17 19 22 25 26 27 29 28 28 27 26 27 28 26 25 25 26 25 25 26 25 26 25 20 22 27 27 27 28 28 28 29 27 20 19 20 14 14 15 13 19 22 21 20 16 17 24 30 33 31 30 32 34 37
35 34 34 33 33 33 33 32 31 30 29 29 29 28 27 27 25 25 25 15 13 15 9 11 12 12 13 13 13 12 12 14 16 18 19 21 23 25 25 26 28 28 27 26 24 25 26 27 27 27 27 26 25 26 26 26 23 22 26 28 27 27 27 27 27 29 30 29 27 18 13 18 19 15 19 23 21 17 14 19 26 30 31 31 33 35 36 39
36 35 34 34 34 34 33 33 32 30 30 30 29 28 27 25 24 23 16 5 8 11 9 12 13 13 15 15 14 14 16 18 19 20 22 24 24 24 25 25 25 27 28 27 26 27 29 29 29 29 28 26 26 27 26 24 23 27 30 28 27 27 26 26 29 32 31 24 20 15 11 13 14 12 15 19 18 15 15 22 28 31 33 35 37 37 38 41
37 36 35 34 34 34 34 33 31 30 30 30 29 28 27 25 24 19 8 4 10 11 10 12 13 15 17 16 15 17 20 20 20 24 27 26 24 23 24 25 25 27 26 26 29 31 30 29 28 29 28 28 28 26 25 25 26 29 29 27 26 26 26 26 26 27 22 14 18 19 12 10 12 12 13 16 17 18 23 29 32 35 36 37 38 38 40 45
39 38 36 35 35 34 35 33 31 30 30 30 29 28 26 24 21 12 3 7 12 11 12 14 14 15 16 15 17 22 24 24 25 28 28 26 24 22 23 25 27 27 26 27 29 29 28 27 27 28 28 27 27 26 26 27 26 26 25 25 25 24 24 23 20 18 13 9 12 12 13 11 9 11 13 16 19 22 29 32 34 37 37 37 38 38 43 51
40 38 37 36 36 35 35 33 32 31 30 29 28 27 25 22 16 5 6 12 15 13 14 15 14 14 15 17 21 26 28 28 30 29 27 26 25 24 24 24 25 27 27 25 23 22 22 24 26 29 28 27 27 27 27 26 23 23 21 19 19 20 19 15 12 9 6 6 4 5 9 10 10 9 10 17 22 25 28 31 33 36 36 37 38 41 48 53
40 39 38 37 37 36 35 33 33 31 29 29 27 26 22 16 11 12 14 17 12 8 10 11 13 15 19 24 28 30 30 31 33 28 24 24 24 25 25 24 23 24 21 17 17 20 23 27 28 29 29 27 25 23 22 22 20 19 15 10 11 13 12 7 5 5 8 9 5 4 5 10 20 22 18 23 28 27 28 30 32 35 36 37 40 46 52 53
41 40 39 38 38 37 35 34 33 31 30 28 26 25 17 8 10 16 18 16 12 12 17 19 21 24 26 29 32 33 34 34 32 26 23 25 27 27 26 24 22 21 21 21 23 23 23 24 23 22 23 21 19 17 14 13 11 10 9 6 6 6 6 6 5 5 9 9 6 8 9 13 22 20 15 23 25 24 27 29 31 34 33 37 45 50 51 52
42 40 39 40 39 38 36 35 34 32 30 28 25 21 13 12 20 24 23 23 23 23 26 26 27 28 30 32 34 34 31 30 27 24 26 29 29 27 26 26 24 20 24 26 23 19 16 16 16 17 17 16 16 16 15 15 14 13 14 11 9 8 6 6 6 6 8 12 12 11 9 8 12 10 8 16 23 23 25 28 29 30 33 43 51 50 50 52
42 41 41 40 39 38 37 35 34 32 29 28 24 17 17 23 28 29 27 26 24 24 27 28 29 33 36 36 34 29 23 23 25 27 30 30 27 26 26 27 23 18 19 18 15 14 14 17 19 20 20 18 18 18 18 18 18 17 17 14 11 11 11 10 14 15 16 18 14 10 11 10 11 15 17 21 25 23 22 25 26 31 41 49 50 48 50 50
43 43 42 41 40 39 37 36 35 33 31 29 23 22 30 34 33 31 29 27 26 28 31 32 31 31 28 24 25 25 22 24 29 30 30 30 27 24 24 25 23 18 17 16 15 14 12 15 18 18 19 20 19 20 20 17 14 13 11 10 11 14 14 13 16 16 14 14 9 9 14 16 13 17 19 20 21 18 18 24 30 38 46 49 48 49 50 50
44 44 43 42 41 39 37 37 35 33 31 29 27 31 39 42 40 39 38 36 35 33 31 28 27 25 20 18 23 26 25 25 29 29 26 26 25 23 24 26 25 21 18 18 20 19 19 23 26 23 22 24 23 22 23 22 20 17 12 10 13 13 13 10 7 6 6 9 10 11 15 16 12 11 12 16 17 17 22 31 37 44 48 48 49 50 50 52
45 45 45 43 41 39 38 37 36 35 32 30 33 39 44 45 45 44 41 38 35 32 29 27 27 27 27 27 24 25 27 26 29 31 28 25 24 25 26 27 26 23 20 20 21 22 22 23 26 26 23 23 23 22 23 24 25 23 19 17 14 10 8 7 5 4 6 7 9 11 13 15 16 14 10 13 17 21 31 36 40 46 49 48 49 51 52 55
45 46 47 45 41 40 39 38 38 35 33 35 40 43 47 48 48 44 40 36 33 31 32 32 30 30 33 34 29 28 32 32 32 32 27 22 23 29 34 33 30 28 26 23 23 26 25 18 17 21 20 19 20 22 22 23 24 25 24 22 18 16 13 11 10 6 6 6 7 9 11 9 11 13 12 14 22 31 34 36 43 48 48 48 49 52 53 56
46 47 50 47 42 40 40 39 38 36 37 42 45 47 50 50 48 46 41 38 36 35 35 36 35 35 38 39 36 35 36 37 37 33 29 29 32 37 40 35 31 28 24 23 22 24 25 20 17 20 19 18 19 22 23 21 20 22 23 21 20 19 17 15 17 16 12 8 6 7 11 8 7 12 22 27 32 35 32 37 47 48 46 48 49 51 53 56
46 47 50 48 44 42 40 40 41 41 43 47 49 50 51 51 49 48 43 39 38 38 38 39 39 41 42 41 40 38 37 39 41 36 35 39 39 37 36 32 30 28 24 24 25 24 23 22 22 22 22 23 24 24 24 22 21 20 20 19 18 18 16 11 10 16 19 15 9 7 13 21 22 24 32 35 34 32 32 40 47 47 47 48 48 50 53 55
47 49 51 48 45 43 41 43 44 44 47 50 51 51 50 49 49 47 44 40 39 40 41 43 44 45 45 43 41 39 37 40 43 40 40 42 41 40 40 40 38 34 30 29 28 27 24 23 24 26 26 27 27 26 25 24 25 24 21 20 19 18 21 18 9 8 13 16 17 13 13 25 31 30 34 36 33 31 33 40 44 45 47 47 48 51 52 54
50 51 51 49 47 45 42 44 46 47 51 53 52 51 51 51 50 48 47 44 43 43 44 46 48 47 46 43 40 38 38 41 43 43 41 41 43 44 43 42 39 35 32 30 27 25 23 22 24 25 25 25 26 27 29 28 28 29 30 29 27 25 27 26 18 14 14 15 16 10 10 25 35 35 38 37 33 35 37 39 41 43 46 47 48 51 52 54
50 51 50 49 49 47 47 49 50 52 54 54 53 53 53 53 53 51 50 48 46 46 47 49 50 48 46 43 40 40 41 40 39 40 40 40 43 45 42 40 39 36 32 29 27 24 21 21 21 16 12 14 16 18 22 28 29 32 33 29 27 28 28 27 23 20 18 18 18 11 14 33 39 37 41 38 34 39 39 37 41 44 45 47 47 50 52 54
49 49 51 50 49 50 52 53 52 53 54 54 55 56 55 55 56 53 52 52 50 50 50 51 51 49 47 45 44 45 46 42 39 40 43 45 47 48 45 42 39 37 34 32 30 28 25 24 23 18 10 9 9 6 9 17 21 24 27 26 25 26 29 29 24 19 17 18 23 23 25 42 46 38 41 40 34 35 36 36 41 43 44 45 46 49 52 54
50 51 53 53 51 53 57 56 53 54 55 54 55 57 55 56 59 56 52 53 53 52 52 52 51 49 48 49 48 48 48 46 43 44 47 49 49 49 48 45 40 37 34 32 29 28 29 30 31 31 27 23 19 15 16 18 16 17 21 23 25 26 30 32 26 25 26 24 30 36 33 41 49 43 41 38 31 33 36 38 41 43 44 45 46 48 52 54
53 56 58 55 51 51 55 57 56 57 57 54 55 57 54 52 54 56 55 53 52 52 50 50 50 49 50 51 49 49 49 47 47 48 49 50 51 51 52 49 44 40 36 31 29 29 31 35 36 36 38 37 33 30 31 30 27 25 23 22 25 26 30 33 32 35 35 25 30 40 31 31 44 45 39 37 34 35 38 39 42 44 44 45 47 50 52 54
57 59 61 58 53 51 53 55 54 53 53 52 54 57 54 48 48 55 57 54 52 52 49 50 54 55 53 51 48 49 49 46 46 50 50 50 51 52 52 51 46 43 39 33 32 30 32 37 37 35 37 39 37 35 36 35 33 32 28 25 26 27 30 35 38 42 40 33 37 44 36 35 43 41 37 36 33 34 37 40 42 43 44 46 48 51 53 55
59 60 61 61 60 59 59 58 56 54 54 53 54 58 56 53 56 60 59 56 56 56 53 55 60 59 54 50 48 51 52 47 47 53 52 50 51 50 49 47 43 41 39 35 34 32 33 37 36 34 36 38 37 36 36 36 35 35 34 33 31 30 32 38 41 41 40 42 46 46 42 44 42 35 34 33 29 32 38 40 42 43 44 45 48 51 53 55
63 63 63 62 62 62 61 61 61 60 60 60 62 63 61 61 65 64 61 61 61 61 60 61 62 59 55 52 51 55 57 53 52 56 53 51 51 48 44 42 39 37 36 35 34 32 32 34 33 30 32 36 36 35 35 34 33 35 38 36 31 32 35 38 39 37 36 39 42 41 43 44 36 29 28 28 29 35 39 40 42 43 43 45 48 50 53 54
64 64 62 60 62 63 62 62 62 61 63 66 67 66 64 66 68 64 62 66 66 63 64 63 61 57 54 53 55 58 58 54 53 55 55 54 53 49 45 42 41 38 35 34 34 34 34 35 34 28 26 32 33 28 28 29 29 37 44 39 33 37 41 41 39 37 36 36 37 37 39 38 31 25 27 30 34 37 38 39 42 42 42 44 47 49 52 54
64 64 62 61 63 66 66 65 62 63 69 73 70 68 67 68 67 62 62 66 67 64 62 60 57 55 54 55 58 59 57 55 55 55 55 54 53 51 48 46 44 41 38 35 33 34 34 35 35 28 22 26 27 21 21 22 19 28 41 38 32 35 37 37 38 35 32 32 33 35 36 33 28 28 32 34 34 34 37 39 40 41 43 44 46 49 51 53
Wind_Direction
244 275 1 26 28 24 22 19 21 21 19 16 11 11 12 14 14 15 13 11 11 10 9 5 360 358 359 1 1 2 2 0 5 19 33 37 37 41 41 36 26 18 11 4 1 358 357 355 348 345 343 344 346 344 346 341 338 343 349 345 291 147 164 221 241 270 310 319 310 305 312 321 329 332 330 336 338 353 18 3 329 339 337 325 308 300 299 295
251 265 285 326 351 355 355 355 1 5 5 3 0 0 1 3 4 7 7 7 8 8 7 3 358 357 357 358 360 1 0 359 8 23 31 31 33 36 35 26 15 9 6 3 3 360 357 352 344 342 342 342 341 338 338 335 335 338 344 344 244 223 235 261 296 313 328 326 309 308 316 322 331 334 327 325 351 22 12 257 290 292 283 293 294 294 297 296
252 265 275 286 301 319 330 331 340 348 351 350 350 350 352 355 355 358 0 3 6 6 5 2 358 355 354 356 358 1 360 357 9 24 25 24 26 25 20 12 5 2 3 0 358 359 354 346 339 336 336 336 336 334 330 330 331 334 348 354 254 269 278 297 318 322 332 329 308 315 324 325 329 334 325 318 18 33 269 274 301 295 288 288 288 290 295 295
251 261 271 278 284 296 310 317 323 331 338 340 341 342 344 348 348 351 355 359 3 4 3 1 358 353 352 354 356 1 1 357 10 22 18 15 12 6 3 359 0 1 0 356 353 353 345 341 336 332 335 333 334 332 330 332 329 334 348 313 279 289 297 308 321 324 332 341 313 321 331 327 326 329 322 315 58 319 279 300 314 311 310 304 298 298 298 297
252 259 267 273 278 285 297 306 312 319 326 331 335 337 338 342 344 346 350 357 1 2 1 359 356 352 350 351 354 1 4 2 11 15 9 5 0 354 352 352 359 3 0 353 346 344 339 339 334 333 336 334 335 333 335 336 331 335 327 306 304 299 303 311 320 325 337 4 328 330 331 326 326 325 319 304 168 276 294 317 317 314 314 309 307 306 304 302
256 261 267 270 275 280 287 296 303 310 317 323 331 333 333 335 339 341 347 354 357 0 360 356 354 352 349 350 353 1 8 11 9 7 1 359 356 352 351 351 356 357 356 352 345 342 339 338 335 336 337 334 337 334 338 337 333 338 309 311 324 309 308 313 320 325 344 6 344 337 326 325 327 319 310 283 246 300 312 319 314 313 314 312 311 309 307 305
259 265 268 270 273 275 281 287 294 303 310 318 327 330 328 329 334 336 343 351 355 359 358 354 353 351 350 350 353 2 7 12 9 2 358 355 354 353 353 352 351 349 351 352 349 345 340 340 337 336 338 337 340 336 337 334 332 343 303 314 325 317 313 316 323 327 346 352 353 341 321 324 329 318 297 271 288 312 314 313 310 313 315 313 311 308 307 306
261 266 269 272 274 275 277 282 288 297 306 313 321 326 325 324 329 331 337 348 353 358 357 355 352 351 352 350 355 4 3 8 4 359 357 353 352 352 350 349 348 347 348 349 347 345 341 340 337 337 338 337 337 333 335 335 332 339 326 320 323 321 319 322 326 328 341 348 356 347 328 327 326 321 298 275 306 315 314 315 312 314 314 312 311 309 307 306
263 266 270 274 276 278 277 280 285 292 301 308 315 321 322 321 324 326 332 343 350 356 356 356 354 354 357 353 358 7 6 7 360 358 354 350 350 348 347 346 345 345 345 345 344 343 341 340 338 337 336 334 334 331 333 336 330 328 329 325 323 323 324 325 319 327 341 345 349 348 336 326 311 318 308 295 316 315 316 317 313 315 315 313 312 310 309 307
264 266 270 274 279 282 281 280 283 289 297 303 309 316 319 319 320 322 328 337 346 353 355 357 357 359 4 359 3 13 9 2 354 351 348 348 349 346 345 344 343 343 341 341 341 340 340 338 335 334 333 332 331 330 331 331 325 324 326 330 326 321 325 321 305 332 342 341 339 340 338 324 304 311 303 304 320 314 314 313 311 314 314 313 313 311 310 308
265 266 269 273 279 283 283 283 283 288 294 298 304 310 315 316 317 319 323 331 341 348 354 357 358 4 12 4 7 17 8 355 345 339 339 346 347 343 343 343 342 340 339 339 338 338 337 333 332 333 333 330 329 328 327 325 323 322 323 329 325 320 326 320 301 328 338 333 330 334 338 328 311 285 255 291 312 307 307 307 308 313 313 312 311 310 311 311
266 267 269 273 277 281 284 285 286 290 293 297 300 305 310 313 314 316 319 326 335 344 352 355 355 5 14 8 14 19 6 352 331 326 333 341 343 340 340 343 341 338 338 337 335 334 332 330 328 328 329 325 325 327 324 321 320 318 317 323 328 324 325 315 306 320 330 329 326 332 342 335 312 268 267 293 304 303 306 308 312 317 315 313 311 313 316 315
269 268 270 273 275 278 282 285 288 291 295 298 299 303 306 309 312 314 317 322 329 338 349 352 350 358 9 10 19 17 1 339 318 320 325 331 338 338 337 341 341 337 336 335 332 330 328 327 323 322 324 319 320 321 316 314 315 316 316 321 333 321 315 310 312 318 322 323 324 331 340 329 303 305 305 307 306 308 313 316 321 323 319 316 314 316 319 318
271 271 272 274 275 276 280 284 288 292 296 298 300 302 303 307 310 311 314 318 325 333 344 349 344 348 4 7 14 10 346 320 310 312 313 322 335 338 334 336 338 336 334 333 330 328 325 324 321 320 321 318 318 316 315 316 317 321 326 337 12 336 316 307 309 316 316 314 316 323 326 307 301 309 309 305 306 309 313 319 322 322 318 315 315 317 318 317
273 274 274 275 275 277 279 283 288 292 295 298 300 302 303 305 306 308 312 315 320 329 339 344 339 338 352 357 3 0 338 313 296 301 306 318 331 333 331 331 333 333 331 330 329 328 325 322 321 321 320 318 317 317 322 319 313 324 337 341 328 321 318 303 304 308 308 308 311 315 315 308 308 307 302 305 310 310 312 316 318 317 314 312 314 315 313 312
275 275 276 277 277 278 279 282 286 290 294 297 300 302 303 304 305 308 311 312 317 325 335 337 331 327 334 344 354 352 332 306 289 296 304 316 322 326 328 327 328 330 330 328 327 326 324 322 322 321 319 318 317 319 325 316 298 315 325 312 310 308 307 300 300 302 302 307 313 315 316 314 316 314 304 306 310 308 309 312 312 310 309 311 312 310 309 307
276 277 278 278 279 279 280 282 285 288 292 295 298 301 302 303 304 305 308 312 316 322 329 328 320 314 320 336 347 337 320 307 297 296 302 312 315 318 323 324 326 328 328 325 324 324 323 322 321 319 319 317 315 316 322 318 287 291 302 304 303 302 302 297 300 301 299 309 317 316 312 307 314 313 303 304 305 302 304 306 304 302 305 308 307 306 304 301
276 277 278 279 280 280 280 281 284 287 291 294 297 300 302 304 305 305 310 313 314 315 317 320 314 301 311 327 332 325 321 322 313 302 302 308 311 314 317 320 323 324 325 325 323 323 322 319 317 318 317 310 311 313 313 307 294 295 297 298 299 298 295 291 292 289 294 310 319 313 303 299 310 310 299 299 299 297 301 302 300 302 303 304 303 302 299 298
276 277 278 279 280 280 281 282 284 286 290 294 297 300 303 304 305 305 306 305 306 308 312 320 308 283 303 316 316 320 322 326 319 307 301 303 307 310 312 315 319 321 321 321 322 320 318 316 316 315 308 302 306 308 302 296 293 294 296 298 300 298 294 291 280 282 296 312 316 308 309 305 310 307 292 291 294 295 297 298 301 304 305 304 302 298 296 301
275 276 277 279 280 281 282 283 285 287 290 294 296 300 301 301 302 299 296 295 299 304 309 318 296 262 297 309 293 304 307 317 317 306 300 300 303 305 309 313 317 320 317 317 320 316 316 317 310 305 303 303 304 301 298 297 294 294 298 300 302 301 296 290 280 286 301 313 314 313 313 310 312 301 285 287 291 291 293 298 303 306 306 304 300 299 305 312
274 276 276 278 279 281 283 284 286 289 292 296 299 304 306 307 309 307 304 301 302 304 306 315 291 255 290 300 279 291 290 303 308 302 297 298 304 305 310 314 315 316 312 313 317 315 318 315 301 303 304 303 303 299 298 299 294 294 299 301 302 300 293 290 288 290 304 315 318 316 313 315 315 294 283 287 285 283 294 301 301 300 301 302 303 307 315 318
273 275 275 277 278 280 283 284 287 290 293 297 301 306 308 310 312 312 312 309 307 305 304 310 285 251 281 291 275 287 285 295 299 293 292 295 303 305 309 313 311 310 308 311 316 315 317 310 300 307 306 303 303 300 300 299 295 294 297 300 301 299 297 299 299 297 309 317 318 315 314 318 310 286 282 281 275 275 290 295 292 292 299 304 306 308 309 308
272 274 275 277 278 280 282 284 287 290 293 297 301 305 307 309 311 313 315 313 312 309 304 302 268 242 270 274 267 290 292 296 295 289 289 290 299 305 308 310 309 309 309 311 314 312 310 303 303 307 304 303 302 300 301 299 295 293 295 298 298 300 302 305 302 302 313 318 316 314 315 314 292 277 273 268 265 270 283 287 284 290 301 304 303 302 302 305
272 274 275 277 278 280 282 284 287 290 293 297 300 303 305 309 312 314 316 314 311 309 305 292 247 233 257 263 267 288 296 302 296 289 288 289 298 306 309 310 310 310 309 310 312 307 302 301 304 305 302 302 300 301 303 299 295 293 294 295 294 298 302 303 302 306 316 319 315 318 320 308 273 268 267 259 260 269 278 281 285 297 304 303 300 300 304 313
272 274 275 277 279 280 282 284 287 289 292 297 299 302 305 309 313 315 318 317 312 309 302 276 235 229 249 265 269 283 294 299 294 289 291 296 302 306 310 311 310 309 306 307 308 302 301 304 305 304 301 300 298 299 299 295 294 295 294 292 294 298 301 303 304 308 316 315 313 326 327 305 268 264 257 257 265 273 279 283 289 300 302 300 301 305 313 319
271 273 275 277 278 280 282 283 285 288 291 294 297 301 304 308 314 317 321 319 309 307 296 252 231 234 250 266 269 280 293 296 295 294 296 302 306 309 313 312 310 309 305 305 304 299 300 302 302 301 298 297 297 297 295 291 291 291 287 288 294 297 297 301 304 309 312 305 303 312 300 279 287 269 247 258 272 271 273 282 289 296 299 300 305 311 315 316
271 272 273 275 278 279 280 282 284 287 290 292 295 299 304 308 315 321 325 317 296 302 279 232 239 245 258 271 270 277 292 300 300 298 301 307 310 313 314 311 308 306 305 305 301 297 298 299 299 297 295 295 294 292 290 288 287 283 283 288 292 293 295 299 302 303 303 300 299 295 260 263 283 269 247 256 265 262 264 276 286 294 295 297 302 306 308 309
270 271 272 274 276 277 279 280 283 286 288 291 294 298 303 307 314 322 328 306 277 294 269 244 249 255 268 273 267 277 295 301 299 299 307 311 311 312 312 311 306 300 301 300 293 292 295 295 295 294 292 291 289 289 287 285 282 281 284 287 288 290 292 296 299 298 300 301 294 280 244 248 274 262 245 259 260 246 255 274 284 290 291 294 299 303 306 309
270 271 271 272 274 276 277 278 281 284 287 290 293 297 302 306 315 322 321 269 281 285 269 261 257 263 271 264 261 282 297 299 296 300 308 309 309 311 310 310 305 298 298 295 289 291 293 292 293 290 287 286 287 288 285 281 279 281 284 286 286 288 291 294 296 296 299 289 277 273 238 226 274 264 244 261 257 245 262 278 285 288 291 295 300 304 307 312
269 270 270 271 273 274 275 277 280 283 286 289 292 296 301 306 315 320 270 260 281 279 276 273 265 266 265 257 270 290 297 298 297 302 307 306 306 310 311 310 305 300 300 297 292 291 289 288 287 285 285 285 285 284 282 281 279 281 284 285 285 289 293 293 286 287 292 274 270 260 218 220 274 273 252 253 250 257 273 279 283 287 292 296 300 304 311 317
269 269 270 270 271 272 274 275 278 281 284 288 291 295 301 307 309 285 238 277 285 280 277 272 267 263 259 265 282 291 294 296 298 303 305 304 307 311 314 312 307 306 305 302 296 288 283 284 283 285 285 282 281 281 280 278 276 279 283 288 295 299 302 289 262 254 258 262 257 203 212 227 239 256 272 269 266 271 277 279 283 289 293 296 299 308 317 323
268 268 269 269 269 271 272 273 276 278 281 285 290 294 301 309 285 243 257 284 287 274 274 275 274 271 273 281 286 289 293 295 298 301 301 301 305 309 311 309 306 305 303 299 294 287 285 285 286 287 283 279 278 277 279 280 279 277 277 295 312 310 308 285 242 236 250 265 264 229 255 253 250 262 272 271 277 283 283 286 289 291 293 296 305 317 324 327
267 268 268 268 268 269 270 272 274 275 279 283 287 292 297 292 256 250 259 269 269 276 285 286 285 284 285 287 288 292 296 296 296 299 301 302 303 305 308 307 304 297 289 289 290 290 292 287 284 283 278 277 273 266 270 277 274 259 252 280 303 297 307 290 277 280 266 265 260 265 288 280 276 280 257 254 274 284 283 287 289 290 294 303 315 324 328 328
267 267 267 267 267 268 268 270 271 273 277 280 284 288 274 246 258 267 266 267 273 281 285 287 288 289 289 288 290 294 295 293 294 299 303 303 302 304 307 307 307 297 285 286 284 280 282 280 279 278 274 275 271 262 255 250 251 247 248 261 263 250 259 276 300 312 296 294 284 270 272 279 295 298 244 264 285 286 283 286 288 292 302 314 323 328 329 329
267 266 266 266 265 266 267 267 269 271 273 276 279 269 246 249 265 274 273 274 280 284 287 290 291 292 292 292 294 294 290 286 292 301 303 298 296 299 300 302 306 298 281 277 274 269 269 269 273 275 272 273 273 269 259 251 256 260 258 258 246 233 237 261 287 288 287 297 287 246 241 260 283 278 270 285 289 282 284 287 292 304 314 321 326 329 330 330
266 265 264 264 264 264 265 265 267 269 270 273 268 251 252 262 270 273 273 277 283 287 291 294 293 293 294 295 295 295 291 287 294 302 300 296 296 295 294 299 303 295 277 266 265 270 272 268 271 273 270 271 272 270 261 248 247 255 256 242 229 235 245 262 285 283 274 282 270 228 250 270 279 270 269 283 283 275 281 292 304 315 321 324 326 329 331 330
264 264 263 262 262 262 262 264 265 265 267 267 257 254 263 270 272 271 273 278 283 287 290 289 288 286 284 287 289 289 289 291 297 299 293 291 294 291 293 299 299 290 280 271 266 263 265 269 273 273 271 272 271 266 259 245 238 243 245 234 235 254 264 252 269 291 269 269 268 256 262 273 276 265 267 276 270 273 292 304 314 320 323 325 326 329 331 330
263 263 262 260 260 260 261 261 261 261 263 261 257 261 268 270 272 273 275 279 283 285 283 278 278 280 281 284 282 278 283 289 293 292 288 286 287 288 294 298 295 288 281 275 266 260 262 268 274 272 266 269 267 259 256 248 241 242 242 240 242 259 269 224 210 276 274 269 282 278 274 271 260 255 262 261 263 287 305 312 318 321 323 325 327 330 331 331
261 261 262 260 259 259 258 257 258 258 257 255 257 263 269 271 272 274 275 278 279 279 279 276 276 279 282 282 277 274 282 288 287 285 282 279 281 289 295 294 290 286 282 276 266 261 260 259 270 270 260 262 259 248 246 247 246 243 239 241 245 248 249 232 221 241 261 275 288 288 294 282 240 246 266 272 287 303 311 316 318 321 323 324 328 331 331 332
259 260 261 261 258 256 256 254 254 252 251 255 259 264 269 272 273 274 275 276 275 275 277 277 277 277 280 280 277 279 284 287 285 280 273 274 281 289 294 292 286 283 282 274 263 260 256 246 253 265 258 252 247 243 244 243 242 239 232 232 240 245 244 240 241 239 238 262 290 285 290 278 219 259 287 293 303 308 312 316 317 319 323 325 328 331 330 332
257 257 259 261 259 255 253 251 251 251 253 258 262 265 268 270 272 274 274 274 274 275 275 276 276 276 277 276 276 281 285 287 285 278 274 278 284 287 289 289 287 284 280 272 264 260 254 245 246 254 255 250 247 249 250 242 237 237 231 227 234 237 228 227 247 241 231 234 242 255 282 278 267 277 293 301 306 307 310 315 316 318 323 325 327 330 330 332
254 254 258 261 258 255 253 252 253 254 256 259 262 264 267 270 272 273 273 273 273 274 275 276 276 275 274 273 276 282 284 283 282 277 276 283 287 286 284 285 285 282 278 274 270 264 258 252 247 248 254 255 254 253 250 244 241 239 235 235 237 230 220 220 229 238 236 234 236 245 271 275 276 285 299 306 307 304 308 314 315 317 322 325 327 329 330 332
253 255 258 258 257 254 252 252 253 255 257 260 263 266 268 269 269 269 271 272 272 274 275 276 277 276 275 275 278 282 282 279 278 277 279 285 286 283 281 282 281 278 275 271 267 261 253 247 244 248 257 259 257 257 254 249 245 243 247 248 244 237 232 234 235 245 257 241 230 240 257 262 275 291 301 305 304 302 308 312 313 316 321 324 327 328 330 332
254 255 256 255 254 253 251 251 254 256 260 263 266 267 267 267 268 269 271 271 272 274 275 275 276 276 276 277 278 280 278 273 275 280 282 282 282 282 281 280 278 275 272 268 264 259 250 242 239 244 259 257 252 254 250 245 242 245 250 248 244 241 236 234 235 241 253 247 229 220 248 263 275 290 299 302 300 301 308 311 310 316 321 324 327 328 330 332
252 252 252 250 250 252 253 254 255 258 262 264 266 267 266 267 268 268 270 272 275 275 273 273 275 275 275 275 276 277 274 269 271 277 279 279 280 282 282 279 276 273 269 266 264 260 253 244 233 226 228 236 243 247 238 240 243 245 244 239 240 239 233 237 242 234 238 250 239 226 246 269 277 287 296 297 297 299 306 308 309 316 322 324 327 328 329 331
249 248 248 247 247 249 253 255 256 257 260 262 264 267 267 267 269 270 271 273 274 273 272 273 274 274 272 271 272 273 272 270 270 272 275 279 280 281 281 278 275 272 267 265 262 255 250 247 239 235 238 243 251 265 268 263 259 254 250 244 242 241 239 241 239 234 240 251 251 245 250 269 279 291 300 297 297 300 302 306 311 317 322 324 326 327 329 331
247 246 247 247 247 250 253 255 255 256 259 260 261 265 266 266 271 273 272 272 272 272 272 273 272 269 269 271 271 272 274 273 271 271 274 277 279 279 277 274 271 268 267 265 259 249 246 249 247 244 246 250 253 258 265 267 266 264 260 249 243 244 242 235 233 245 250 248 258 261 257 263 279 292 299 295 297 301 301 307 314 318 322 325 326 327 329 331
245 247 249 249 249 251 254 256 257 259 262 261 261 264 263 263 268 271 272 272 273 272 270 270 273 272 272 273 271 272 275 271 269 274 275 276 278 276 272 269 267 267 267 263 255 247 245 250 252 249 251 256 255 255 258 263 267 266 260 251 244 239 240 243 247 254 251 242 255 268 270 271 279 290 296 295 297 297 299 308 314 318 323 326 326 327 329 332
245 246 249 250 250 252 255 258 260 260 262 262 263 264 263 262 266 269 271 272 272 272 270 271 276 276 276 276 271 270 272 268 270 279 280 277 277 272 268 267 267 268 268 261 253 249 247 251 254 253 256 259 257 256 259 261 265 264 261 259 253 242 246 257 259 258 253 249 258 269 274 276 283 293 297 297 294 291 298 308 314 319 324 325 326 327 329 333
245 246 249 251 254 256 256 258 259 260 262 262 261 263 264 265 268 269 270 270 271 273 273 273 278 279 280 280 273 271 274 275 276 280 278 273 271 269 268 270 270 270 267 259 253 248 244 249 253 253 258 261 260 261 264 264 264 265 264 263 254 246 251 256 252 249 245 249 261 269 269 274 289 300 294 290 291 295 302 310 315 320 324 324 325 326 329 334
247 249 250 251 255 257 257 258 259 260 262 261 260 262 264 266 269 270 271 273 275 275 275 277 280 280 278 276 272 274 278 277 273 272 269 267 267 268 271 271 271 270 264 258 254 246 240 244 249 250 256 264 267 268 267 267 269 269 266 259 248 251 260 259 251 244 238 247 265 268 263 274 294 297 286 288 295 300 305 310 315 321 323 323 325 327 331 334
247 247 248 248 251 255 256 256 256 257 259 260 261 264 266 268 271 272 271 273 275 275 276 278 278 276 273 272 272 276 278 273 268 267 267 266 267 270 270 269 269 267 263 257 251 245 241 242 245 245 253 267 270 265 267 277 281 271 266 263 259 263 266 261 256 250 242 248 261 262 265 280 293 288 286 294 300 302 304 310 316 319 320 322 325 328 332 334
Height
3199 3199 3198 3198 3197 3196 3195 3194 3193 3192 3191 3191 3190 3189 3188 3186 3185 3183 3182 3180 3178 3176 3174 3172 3169 3167 3165 3163 3162 3160 3159 3158 3157 3156 3155 3154 3153 3152 3152 3152 3152 3151 3151 3150 3149 3148 3148 3147 3146 3146 3145 3145 3144 3143 3143 3142 3142 3141 3141 3142 3143 3143 3142 3142 3142 3142 3141 3139 3138 3136 3134 3133 3132 3131 3129 3128 3127 3126 3126 3124 3124 3123 3122 3120 3116 3114 3113 3110
3199 3198 3198 3197 3197 3196 3195 3194 3193 3192 3191 3190 3190 3189 3188 3186 3185 3183 3182 3180 3178 3175 3173 3171 3169 3167 3164 3163 3161 3160 3159 3158 3157 3156 3155 3154 3153 3153 3152 3152 3151 3151 3150 3150 3149 3148 3147 3147 3146 3146 3145 3144 3144 3143 3143 3142 3142 3141 3141 3141 3141 3141 3140 3140 3140 3140 3139 3138 3136 3135 3133 3131 3130 3130 3129 3127 3126 3126 3124 3123 3123 3122 3121 3119 3114 3112 3111 3108
3198 3198 3197 3197 3196 3196 3194 3193 3192 3191 3191 3190 3189 3188 3187 3186 3185 3183 3181 3179 3177 3175 3173 3171 3168 3166 3164 3162 3161 3160 3159 3158 3158 3157 3156 3156 3155 3154 3153 3152 3151 3151 3150 3150 3149 3148 3148 3147 3146 3145 3144 3143 3143 3142 3142 3141 3141 3141 3141 3141 3140 3139 3138 3138 3138 3138 3138 3137 3135 3134 3132 3129 3128 3128 3127 3126 3126 3124 3121 3121 3121 3119 3118 3116 3112 3111 3109 3106
3198 3198 3197 3196 3196 3195 3194 3193 3192 3191 3190 3189 3189 3188 3187 3186 3184 3183 3181 3179 3177 3175 3172 3170 3168 3166 3164 3162 3161 3160 3159 3159 3158 3158 3157 3157 3156 3155 3154 3153 3152 3151 3150 3149 3149 3148 3147 3147 3145 3145 3144 3143 3142 3142 3141 3140 3140 3140 3140 3140 3138 3137 3137 3136 3136 3136 3136 3136 3134 3132 3131 3128 3126 3126 3124 3124 3124 3121 3118 3119 3118 3116 3114 3111 3109 3108 3106 3104
3198 3197 3196 3196 3195 3194 3194 3193 3191 3190 3189 3189 3188 3187 3186 3185 3184 3182 3181 3179 3177 3174 3172 3170 3168 3165 3163 3162 3161 3160 3159 3159 3159 3159 3158 3157 3157 3156 3154 3153 3152 3151 3150 3149 3148 3147 3147 3146 3145 3144 3143 3142 3142 3141 3140 3140 3139 3139 3139 3138 3137 3137 3135 3134 3134 3134 3134 3134 3133 3131 3129 3127 3126 3124 3122 3121 3120 3117 3117 3117 3116 3114 3111 3108 3106 3104 3102 3101
3197 3196 3196 3195 3194 3193 3193 3192 3191 3190 3189 3188 3187 3186 3185 3185 3184 3182 3180 3178 3176 3174 3172 3169 3167 3165 3163 3162 3161 3160 3160 3160 3159 3159 3159 3158 3157 3156 3154 3153 3152 3151 3150 3149 3147 3147 3146 3145 3144 3143 3142 3141 3141 3140 3140 3139 3139 3139 3137 3136 3136 3135 3134 3133 3132 3132 3133 3133 3132 3130 3127 3126 3125 3122 3120 3119 3117 3115 3115 3116 3113 3111 3109 3106 3104 3101 3099 3097
3196 3196 3195 3194 3193 3193 3192 3191 3190 3189 3188 3187 3186 3186 3185 3184 3183 3181 3180 3178 3176 3174 3172 3169 3167 3165 3163 3161 3161 3160 3160 3160 3160 3159 3159 3158 3157 3155 3154 3153 3152 3150 3149 3148 3147 3146 3145 3144 3143 3142 3141 3140 3140 3139 3139 3138 3137 3138 3136 3134 3134 3134 3132 3131 3131 3130 3131 3131 3131 3129 3126 3125 3123 3121 3119 3117 3116 3113 3113 3113 3111 3108 3107 3104 3102 3099 3097 3095
3195 3195 3194 3193 3192 3192 3191 3190 3189 3188 3187 3186 3186 3185 3184 3183 3182 3181 3179 3178 3176 3174 3172 3170 3167 3165 3163 3161 3161 3160 3160 3160 3159 3159 3158 3157 3156 3154 3153 3152 3151 3149 3148 3147 3146 3145 3144 3143 3142 3141 3140 3139 3138 3138 3137 3137 3136 3136 3135 3133 3131 3131 3130 3129 3129 3129 3129 3129 3129 3128 3125 3123 3121 3120 3118 3117 3114 3110 3110 3111 3107 3106 3104 3102 3100 3097 3095 3092
3194 3194 3193 3192 3191 3191 3190 3189 3188 3187 3187 3186 3185 3184 3183 3182 3181 3180 3179 3177 3175 3174 3172 3170 3167 3165 3163 3161 3161 3160 3160 3159 3159 3159 3158 3156 3155 3154 3152 3151 3150 3148 3147 3146 3145 3144 3142 3141 3140 3139 3138 3138 3137 3136 3135 3135 3134 3134 3134 3132 3130 3129 3128 3127 3127 3127 3127 3127 3126 3126 3124 3122 3121 3118 3116 3115 3112 3108 3109 3108 3104 3103 3101 3099 3097 3095 3092 3090
3193 3193 3192 3191 3190 3190 3189 3188 3187 3186 3186 3185 3184 3183 3182 3181 3180 3179 3178 3176 3175 3173 3172 3170 3168 3165 3163 3161 3160 3160 3159 3159 3158 3158 3157 3156 3154 3153 3151 3150 3149 3148 3146 3145 3144 3143 3142 3140 3139 3138 3137 3136 3135 3134 3134 3133 3133 3132 3132 3131 3129 3127 3127 3126 3125 3124 3124 3124 3124 3124 3123 3121 3120 3118 3115 3112 3109 3106 3107 3105 3102 3101 3098 3096 3095 3093 3091 3088
3192 3191 3191 3190 3189 3188 3188 3187 3186 3185 3184 3184 3183 3182 3181 3180 3179 3178 3177 3175 3174 3173 3171 3170 3168 3166 3163 3162 3160 3160 3159 3158 3157 3157 3156 3154 3153 3152 3151 3149 3148 3147 3146 3144 3143 3142 3141 3139 3138 3137 3136 3135 3134 3132 3132 3131 3131 3130 3130 3130 3128 3126 3125 3124 3123 3122 3122 3122 3121 3121 3121 3119 3117 3116 3114 3111 3108 3105 3105 3103 3101 3099 3097 3095 3093 3091 3089 3087
3190 3190 3189 3188 3187 3187 3186 3185 3185 3184 3183 3182 3181 3181 3180 3179 3178 3177 3176 3175 3173 3172 3171 3169 3167 3165 3163 3162 3160 3159 3158 3157 3156 3156 3155 3153 3152 3151 3150 3149 3147 3146 3145 3143 3142 3141 3139 3138 3137 3136 3135 3134 3132 3131 3130 3129 3129 3128 3128 3129 3127 3124 3123 3123 3121 3120 3120 3120 3119 3118 3119 3118 3115 3113 3112 3109 3105 3103 3102 3100 3098 3097 3094 3093 3090 3089 3087 3085
3188 3188 3188 3187 3186 3185 3185 3184 3183 3182 3182 3181 3180 3180 3179 3178 3177 3176 3175 3174 3172 3171 3170 3168 3167 3165 3163 3161 3160 3158 3157 3156 3156 3155 3154 3153 3152 3150 3149 3148 3147 3145 3144 3142 3141 3140 3138 3137 3136 3135 3134 3132 3131 3130 3129 3128 3127 3126 3126 3127 3127 3125 3122 3121 3120 3119 3118 3119 3118 3116 3118 3119 3116 3110 3108 3106 3100 3097 3097 3095 3094 3093 3091 3089 3088 3086 3085 3082
3187 3186 3186 3185 3184 3184 3183 3183 3182 3181 3180 3180 3179 3178 3177 3177 3176 3175 3174 3173 3171 3170 3169 3167 3166 3164 3163 3161 3159 3157 3156 3155 3155 3154 3153 3152 3151 3149 3148 3147 3145 3144 3143 3141 3140 3138 3137 3136 3134 3133 3132 3131 3129 3128 3127 3126 3124 3124 3123 3124 3126 3126 3124 3120 3119 3118 3117 3117 3117 3116 3116 3117 3115 3110 3104 3101 3098 3094 3093 3091 3090 3089 3088 3086 3085 3084 3081 3079
3185 3185 3184 3184 3183 3182 3182 3181 3180 3179 3178 3178 3177 3176 3176 3175 3174 3173 3172 3171 3170 3168 3167 3166 3165 3163 3162 3160 3158 3157 3156 3155 3154 3153 3152 3151 3150 3148 3147 3146 3144 3143 3141 3139 3138 3137 3135 3134 3132 3131 3130 3129 3128 3126 3125 3124 3122 3122 3122 3123 3124 3125 3125 3121 3117 3117 3116 3115 3115 3115 3114 3113 3111 3109 3101 3096 3095 3092 3090 3089 3087 3086 3085 3084 3083 3081 3079 3077
3183 3183 3182 3182 3181 3181 3180 3180 3179 3178 3177 3176 3175 3175 3174 3174 3173 3172 3171 3170 3168 3167 3165 3164 3164 3162 3161 3159 3157 3156 3155 3154 3153 3152 3151 3150 3149 3147 3146 3145 3143 3142 3140 3138 3136 3135 3133 3132 3131 3129 3128 3127 3126 3125 3124 3124 3122 3121 3120 3121 3121 3121 3123 3121 3116 3114 3114 3113 3113 3112 3111 3108 3107 3104 3097 3092 3091 3089 3087 3086 3085 3084 3082 3081 3080 3078 3076 3074
3182 3181 3181 3180 3180 3179 3178 3178 3177 3176 3175 3174 3174 3173 3172 3172 3171 3170 3169 3168 3166 3165 3164 3163 3162 3161 3159 3158 3156 3155 3154 3152 3151 3150 3149 3148 3147 3146 3145 3144 3142 3140 3138 3136 3135 3133 3132 3130 3129 3128 3126 3125 3124 3124 3123 3122 3122 3120 3118 3117 3118 3118 3118 3118 3115 3110 3109 3110 3109 3109 3107 3106 3104 3100 3093 3090 3088 3086 3085 3083 3082 3081 3079 3079 3077 3075 3073 3071
3180 3179 3179 3178 3178 3177 3177 3176 3175 3174 3173 3172 3172 3171 3170 3170 3169 3168 3167 3166 3164 3163 3163 3162 3161 3159 3157 3156 3155 3154 3152 3151 3150 3149 3148 3147 3146 3145 3143 3142 3140 3138 3137 3135 3133 3131 3130 3129 3128 3127 3125 3123 3122 3122 3121 3120 3119 3117 3116 3114 3114 3114 3115 3116 3114 3108 3105 3106 3105 3105 3105 3103 3103 3098 3090 3087 3086 3083 3082 3080 3079 3077 3076 3076 3074 3073 3071 3068
3178 3177 3177 3176 3176 3175 3174 3174 3173 3172 3172 3171 3170 3169 3169 3168 3167 3166 3165 3164 3163 3162 3161 3160 3158 3157 3156 3155 3153 3152 3151 3150 3148 3147 3147 3146 3145 3144 3142 3140 3139 3137 3135 3134 3132 3130 3129 3128 3126 3125 3125 3122 3121 3120 3120 3118 3116 3114 3113 3112 3111 3110 3111 3112 3111 3106 3103 3104 3103 3102 3101 3100 3100 3096 3087 3084 3083 3081 3080 3078 3076 3075 3074 3073 3071 3070 3068 3066
3176 3175 3175 3174 3173 3173 3172 3172 3171 3170 3169 3168 3168 3168 3167 3166 3165 3164 3164 3164 3162 3160 3159 3158 3156 3155 3154 3153 3152 3151 3149 3148 3147 3146 3145 3144 3144 3143 3141 3139 3137 3135 3133 3132 3131 3129 3127 3126 3125 3124 3123 3121 3119 3118 3117 3116 3114 3112 3111 3109 3108 3108 3108 3109 3108 3104 3101 3102 3101 3099 3097 3095 3095 3092 3084 3081 3080 3079 3077 3075 3073 3073 3071 3070 3068 3066 3063 3061
3174 3173 3173 3172 3172 3171 3170 3169 3169 3168 3167 3166 3165 3165 3164 3163 3162 3161 3160 3160 3160 3157 3156 3155 3154 3153 3152 3151 3150 3149 3148 3147 3146 3145 3144 3143 3142 3141 3139 3137 3135 3134 3132 3130 3129 3127 3125 3124 3123 3121 3120 3119 3117 3116 3115 3114 3112 3110 3109 3107 3106 3106 3105 3105 3104 3102 3100 3099 3098 3096 3093 3091 3090 3087 3082 3079 3078 3077 3075 3073 3071 3071 3069 3067 3064 3061 3059 3057
3172 3171 3170 3170 3170 3169 3168 3167 3167 3166 3165 3164 3164 3163 3162 3161 3160 3158 3156 3156 3156 3155 3153 3152 3151 3150 3150 3149 3148 3147 3146 3145 3144 3143 3143 3142 3141 3139 3137 3136 3134 3132 3130 3128 3127 3125 3123 3122 3120 3119 3118 3116 3115 3114 3112 3111 3110 3109 3107 3105 3105 3104 3101 3101 3100 3098 3098 3096 3094 3093 3089 3087 3086 3082 3080 3077 3076 3075 3073 3071 3070 3068 3066 3063 3060 3058 3057 3056
3169 3168 3168 3168 3167 3167 3166 3165 3165 3164 3163 3163 3162 3161 3160 3159 3158 3157 3155 3153 3152 3152 3150 3149 3149 3148 3147 3146 3146 3145 3144 3144 3142 3142 3141 3140 3140 3138 3136 3134 3132 3130 3128 3126 3125 3123 3122 3120 3117 3116 3115 3114 3112 3111 3110 3109 3108 3107 3105 3104 3102 3101 3099 3099 3097 3095 3096 3093 3091 3089 3086 3084 3081 3077 3077 3075 3073 3073 3070 3067 3067 3065 3063 3060 3057 3056 3055 3053
3166 3166 3166 3165 3165 3165 3164 3164 3163 3162 3161 3160 3160 3159 3158 3157 3156 3155 3153 3150 3149 3148 3147 3146 3146 3146 3145 3145 3144 3143 3142 3142 3141 3140 3140 3139 3138 3137 3135 3132 3130 3128 3126 3124 3123 3121 3119 3117 3116 3114 3113 3111 3110 3109 3107 3106 3105 3104 3103 3101 3100 3098 3097 3096 3093 3091 3093 3092 3088 3085 3083 3080 3077 3073 3072 3072 3070 3069 3067 3065 3062 3060 3058 3056 3054 3054 3052 3050
3164 3163 3163 3163 3163 3162 3162 3162 3161 3160 3159 3158 3158 3157 3156 3155 3154 3153 3151 3148 3145 3144 3144 3143 3143 3143 3143 3142 3142 3141 3140 3140 3139 3138 3138 3137 3136 3135 3133 3131 3128 3127 3124 3122 3121 3118 3116 3115 3113 3112 3111 3110 3108 3107 3106 3103 3102 3102 3100 3098 3097 3096 3095 3094 3092 3089 3089 3090 3087 3085 3082 3076 3074 3073 3068 3067 3068 3064 3062 3061 3059 3057 3055 3052 3052 3050 3048 3046
3161 3161 3161 3160 3160 3160 3160 3159 3159 3158 3157 3156 3155 3155 3155 3154 3153 3151 3149 3146 3142 3141 3140 3140 3141 3141 3141 3141 3140 3139 3138 3137 3136 3136 3135 3135 3134 3132 3131 3128 3125 3124 3122 3120 3119 3116 3114 3113 3112 3111 3109 3108 3107 3105 3104 3102 3101 3100 3096 3095 3095 3095 3093 3092 3091 3089 3087 3086 3085 3087 3085 3075 3071 3073 3067 3064 3064 3061 3059 3059 3056 3054 3052 3049 3048 3047 3045 3043
3158 3158 3158 3157 3157 3157 3157 3156 3156 3155 3154 3154 3153 3153 3153 3152 3152 3150 3148 3145 3140 3138 3138 3138 3138 3138 3138 3139 3138 3137 3136 3134 3134 3133 3133 3132 3131 3130 3128 3126 3124 3121 3120 3119 3117 3114 3112 3111 3111 3109 3107 3106 3105 3103 3101 3101 3100 3097 3094 3094 3093 3092 3092 3090 3090 3089 3085 3083 3081 3082 3084 3075 3069 3069 3065 3062 3063 3060 3058 3056 3053 3051 3049 3046 3046 3045 3043 3041
3155 3155 3155 3155 3154 3154 3154 3153 3153 3153 3152 3151 3150 3151 3150 3150 3150 3149 3149 3145 3138 3135 3137 3136 3136 3136 3136 3136 3135 3134 3133 3132 3131 3129 3130 3130 3128 3127 3125 3124 3122 3119 3118 3117 3114 3111 3110 3109 3108 3107 3106 3104 3103 3101 3100 3099 3098 3094 3092 3092 3091 3090 3089 3088 3087 3086 3083 3081 3077 3076 3080 3074 3066 3065 3063 3060 3061 3059 3056 3053 3051 3048 3046 3044 3044 3043 3041 3039
3151 3151 3151 3152 3152 3151 3151 3150 3150 3150 3149 3148 3148 3148 3148 3149 3148 3147 3149 3145 3136 3133 3134 3134 3134 3134 3133 3133 3132 3132 3131 3130 3129 3126 3126 3126 3125 3125 3122 3120 3119 3116 3116 3115 3111 3109 3108 3107 3106 3104 3103 3101 3100 3098 3097 3097 3095 3092 3091 3090 3088 3087 3086 3086 3084 3082 3082 3078 3072 3071 3075 3071 3063 3061 3061 3059 3057 3056 3054 3051 3049 3046 3043 3042 3040 3040 3038 3035
3148 3148 3148 3149 3149 3149 3148 3148 3148 3147 3147 3146 3146 3146 3146 3146 3146 3148 3148 3141 3133 3131 3132 3131 3132 3131 3130 3130 3130 3128 3127 3127 3126 3124 3123 3122 3122 3122 3120 3117 3115 3113 3112 3111 3108 3106 3104 3104 3103 3101 3100 3098 3097 3096 3095 3094 3092 3090 3089 3087 3086 3085 3083 3083 3081 3080 3079 3073 3067 3066 3069 3069 3063 3057 3057 3056 3054 3053 3051 3049 3046 3043 3041 3039 3038 3037 3035 3031
3144 3145 3145 3145 3145 3145 3145 3145 3145 3145 3144 3144 3143 3144 3144 3144 3145 3147 3142 3135 3131 3130 3129 3129 3129 3129 3128 3128 3127 3126 3125 3123 3122 3122 3120 3118 3118 3118 3117 3115 3112 3109 3107 3105 3103 3102 3101 3100 3099 3098 3097 3096 3095 3093 3092 3091 3090 3089 3088 3086 3084 3082 3081 3079 3078 3079 3077 3069 3064 3064 3065 3067 3061 3053 3052 3051 3049 3049 3048 3045 3043 3040 3039 3037 3036 3035 3031 3026
3141 3141 3141 3142 3142 3142 3142 3142 3142 3142 3141 3141 3141 3141 3142 3142 3141 3139 3135 3132 3131 3127 3126 3127 3127 3126 3126 3125 3124 3123 3122 3120 3118 3119 3118 3116 3115 3115 3115 3113 3111 3109 3105 3103 3101 3098 3097 3096 3096 3094 3093 3093 3092 3091 3090 3088 3088 3088 3087 3087 3085 3082 3080 3076 3074 3074 3071 3066 3063 3062 3064 3061 3054 3051 3050 3047 3045 3046 3044 3042 3041 3038 3037 3035 3033 3031 3027 3022
3137 3137 3138 3138 3138 3138 3138 3139 3139 3139 3139 3138 3139 3139 3141 3142 3136 3131 3130 3131 3129 3125 3125 3125 3124 3124 3123 3121 3120 3119 3118 3116 3114 3115 3114 3113 3112 3111 3111 3111 3111 3109 3105 3102 3100 3097 3094 3091 3090 3090 3089 3089 3090 3090 3090 3088 3087 3087 3087 3088 3086 3085 3084 3078 3072 3069 3065 3064 3063 3063 3063 3057 3048 3046 3046 3044 3044 3044 3042 3041 3039 3036 3035 3032 3030 3027 3022 3017
3133 3134 3134 3134 3134 3134 3135 3135 3135 3136 3136 3136 3136 3137 3138 3136 3129 3126 3127 3127 3126 3124 3123 3122 3121 3120 3119 3117 3117 3116 3115 3111 3109 3111 3110 3108 3107 3106 3106 3106 3107 3107 3103 3101 3099 3096 3094 3088 3086 3087 3086 3087 3087 3088 3089 3087 3086 3084 3085 3087 3086 3086 3086 3080 3074 3070 3066 3063 3062 3064 3062 3053 3047 3043 3041 3042 3043 3041 3040 3038 3036 3034 3033 3030 3026 3023 3018 3013
3129 3129 3130 3130 3130 3131 3131 3132 3132 3133 3133 3133 3133 3134 3132 3128 3123 3123 3123 3122 3122 3122 3120 3119 3118 3116 3114 3112 3111 3112 3113 3108 3105 3106 3105 3103 3103 3102 3102 3101 3101 3102 3101 3100 3097 3094 3092 3087 3084 3085 3084 3084 3085 3085 3086 3086 3085 3082 3082 3084 3084 3084 3084 3081 3076 3072 3071 3066 3059 3059 3056 3049 3048 3043 3038 3041 3040 3038 3038 3035 3033 3032 3029 3026 3022 3019 3015 3010
3124 3124 3125 3125 3126 3127 3128 3128 3128 3129 3129 3129 3129 3126 3123 3121 3121 3121 3119 3118 3120 3119 3117 3116 3115 3112 3110 3108 3106 3107 3108 3106 3103 3103 3100 3097 3098 3097 3097 3097 3097 3098 3098 3097 3095 3093 3090 3085 3082 3083 3082 3082 3082 3082 3082 3084 3083 3080 3080 3081 3080 3081 3081 3080 3076 3072 3073 3068 3055 3051 3049 3046 3047 3043 3037 3039 3037 3035 3036 3032 3031 3030 3026 3022 3019 3015 3012 3006
3119 3119 3120 3121 3121 3123 3124 3124 3125 3124 3125 3125 3122 3118 3115 3115 3116 3116 3116 3116 3117 3117 3116 3114 3111 3109 3108 3106 3105 3103 3103 3103 3100 3099 3097 3095 3093 3091 3092 3093 3092 3093 3093 3093 3092 3091 3088 3083 3079 3080 3080 3079 3080 3080 3079 3080 3080 3078 3078 3078 3078 3078 3079 3079 3077 3073 3071 3064 3049 3045 3047 3045 3045 3041 3036 3037 3035 3033 3033 3030 3028 3026 3022 3019 3015 3012 3008 3003
3114 3114 3114 3115 3117 3118 3120 3120 3120 3119 3120 3119 3115 3112 3110 3110 3110 3111 3112 3113 3113 3113 3112 3111 3107 3105 3104 3104 3103 3100 3100 3100 3098 3095 3094 3092 3089 3086 3087 3088 3087 3088 3088 3089 3088 3086 3085 3081 3076 3075 3076 3076 3076 3077 3076 3075 3075 3076 3075 3075 3076 3076 3076 3076 3076 3072 3068 3060 3048 3042 3042 3041 3041 3038 3036 3035 3033 3031 3030 3027 3024 3021 3018 3015 3011 3007 3003 2998
3108 3108 3106 3109 3114 3114 3115 3115 3114 3115 3115 3111 3108 3106 3104 3103 3104 3106 3108 3109 3110 3109 3107 3106 3104 3102 3100 3099 3098 3097 3096 3096 3095 3092 3090 3088 3084 3081 3082 3084 3083 3083 3084 3084 3083 3081 3082 3081 3075 3071 3072 3074 3073 3073 3073 3071 3071 3072 3072 3072 3072 3073 3073 3073 3071 3068 3065 3060 3051 3043 3037 3034 3034 3034 3034 3034 3031 3029 3026 3023 3020 3017 3014 3011 3007 3003 2998 2993
3104 3102 3099 3103 3109 3110 3109 3110 3109 3108 3106 3103 3102 3101 3098 3098 3099 3101 3103 3105 3105 3105 3102 3101 3100 3098 3096 3094 3093 3093 3093 3091 3090 3089 3086 3083 3081 3078 3077 3078 3079 3079 3080 3079 3079 3078 3079 3078 3073 3069 3069 3070 3069 3068 3068 3068 3067 3068 3069 3069 3068 3069 3070 3069 3065 3063 3063 3061 3057 3049 3036 3028 3029 3031 3031 3030 3028 3026 3024 3020 3016 3014 3011 3007 3003 2999 2994 2989
3099 3096 3093 3098 3103 3104 3105 3104 3101 3101 3099 3097 3096 3096 3094 3094 3094 3094 3098 3100 3100 3100 3098 3097 3096 3093 3091 3090 3089 3090 3090 3087 3085 3084 3081 3079 3079 3077 3073 3073 3075 3076 3076 3075 3074 3074 3075 3074 3071 3068 3065 3065 3064 3063 3064 3065 3064 3063 3064 3064 3064 3065 3065 3065 3062 3058 3058 3058 3055 3051 3038 3022 3023 3028 3028 3027 3026 3023 3021 3017 3013 3010 3007 3003 3000 2996 2991 2987
3093 3089 3089 3094 3096 3097 3099 3096 3094 3095 3093 3090 3090 3090 3090 3090 3089 3089 3091 3094 3094 3094 3093 3091 3090 3088 3086 3086 3087 3087 3087 3083 3079 3078 3076 3075 3075 3074 3070 3070 3071 3072 3072 3071 3070 3070 3071 3070 3067 3064 3062 3061 3060 3060 3060 3060 3060 3059 3059 3059 3061 3061 3059 3059 3058 3054 3054 3052 3050 3052 3040 3016 3014 3024 3025 3024 3022 3019 3018 3015 3010 3007 3003 3000 2996 2992 2989 2984
3086 3085 3086 3089 3089 3091 3092 3089 3087 3087 3084 3083 3085 3086 3086 3084 3084 3084 3085 3088 3089 3088 3087 3085 3083 3082 3081 3083 3084 3084 3083 3078 3073 3072 3072 3072 3071 3069 3067 3066 3066 3067 3067 3066 3065 3066 3067 3065 3063 3061 3060 3058 3057 3057 3056 3055 3056 3054 3052 3053 3055 3054 3053 3053 3052 3051 3050 3046 3046 3051 3036 3010 3010 3021 3021 3020 3019 3016 3015 3012 3007 3004 3000 2997 2993 2988 2984 2980
3082 3082 3082 3083 3083 3084 3083 3081 3081 3080 3078 3080 3081 3080 3079 3078 3077 3078 3079 3081 3083 3083 3081 3078 3077 3077 3077 3078 3079 3079 3077 3074 3069 3068 3068 3067 3065 3064 3063 3063 3062 3062 3062 3061 3061 3062 3062 3061 3060 3060 3059 3056 3054 3053 3051 3050 3050 3048 3046 3048 3048 3049 3050 3049 3048 3049 3045 3038 3041 3043 3024 3006 3012 3020 3017 3017 3016 3012 3011 3008 3004 3001 2997 2993 2989 2985 2981 2977
3078 3076 3075 3076 3077 3076 3073 3073 3076 3076 3074 3075 3074 3072 3072 3071 3070 3072 3074 3075 3076 3077 3075 3072 3071 3072 3072 3073 3073 3071 3070 3068 3067 3065 3064 3061 3059 3059 3059 3059 3058 3057 3057 3056 3056 3057 3057 3055 3054 3054 3053 3050 3048 3047 3045 3043 3044 3043 3043 3043 3044 3046 3046 3043 3045 3046 3039 3033 3034 3029 3015 3007 3012 3017 3015 3015 3013 3009 3007 3005 3001 2998 2994 2990 2986 2982 2978 2973
3071 3069 3066 3068 3070 3068 3065 3067 3071 3070 3069 3070 3067 3065 3065 3063 3062 3066 3069 3069 3069 3069 3068 3067 3067 3067 3067 3066 3066 3064 3062 3063 3064 3061 3059 3057 3055 3055 3055 3053 3053 3052 3051 3052 3052 3052 3051 3049 3047 3046 3044 3042 3042 3042 3040 3039 3040 3039 3039 3039 3040 3041 3040 3040 3041 3036 3032 3031 3023 3015 3013 3010 3008 3012 3013 3011 3009 3006 3003 3000 2997 2994 2990 2986 2982 2978 2974 2970
3063 3058 3056 3060 3063 3062 3060 3061 3063 3062 3064 3066 3062 3058 3059 3057 3057 3060 3061 3061 3062 3062 3062 3061 3061 3060 3059 3060 3060 3058 3057 3058 3058 3055 3054 3053 3051 3051 3049 3048 3047 3047 3047 3048 3048 3047 3046 3042 3041 3041 3038 3037 3039 3039 3037 3036 3035 3035 3035 3034 3034 3035 3034 3034 3031 3025 3029 3029 3013 3006 3015 3011 3004 3008 3009 3006 3006 3002 2998 2995 2992 2989 2986 2982 2977 2974 2970 2965
3053 3049 3050 3054 3056 3055 3053 3053 3056 3057 3059 3060 3056 3053 3054 3054 3053 3052 3051 3054 3056 3056 3056 3054 3051 3052 3054 3057 3057 3054 3052 3052 3050 3049 3048 3047 3047 3045 3043 3042 3042 3042 3043 3043 3043 3043 3042 3037 3035 3037 3035 3033 3035 3035 3034 3032 3031 3031 3031 3030 3029 3029 3027 3025 3022 3020 3024 3020 3005 3005 3012 3008 3003 3005 3005 3003 3002 2997 2993 2992 2989 2985 2982 2977 2973 2969 2965 2960
3046 3044 3045 3046 3048 3049 3048 3048 3052 3052 3051 3052 3049 3045 3047 3048 3047 3046 3046 3048 3048 3048 3049 3047 3043 3046 3050 3053 3053 3048 3046 3047 3045 3043 3043 3042 3041 3039 3037 3037 3037 3037 3039 3038 3038 3039 3037 3033 3032 3033 3031 3029 3030 3030 3030 3029 3028 3025 3025 3025 3024 3023 3021 3018 3015 3015 3016 3011 3004 3006 3007 3001 3001 3003 3000 3000 2998 2993 2990 2989 2985 2982 2978 2973 2970 2965 2961 2956
3038 3038 3040 3041 3041 3043 3044 3044 3045 3044 3044 3045 3039 3035 3040 3041 3039 3041 3042 3041 3040 3041 3042 3039 3038 3043 3046 3047 3046 3039 3038 3042 3041 3039 3039 3037 3034 3034 3033 3033 3034 3034 3034 3033 3033 3035 3033 3030 3029 3030 3028 3025 3024 3026 3026 3026 3024 3020 3018 3018 3019 3017 3015 3013 3010 3009 3009 3006 3003 3005 3002 2997 2998 2999 2997 2996 2993 2989 2987 2985 2981 2978 2974 2970 2966 2962 2957 2952
3032 3034 3038 3039 3034 3036 3038 3036 3038 3038 3034 3030 3027 3029 3034 3032 3031 3037 3038 3034 3033 3035 3034 3033 3035 3040 3040 3039 3035 3031 3033 3037 3035 3033 3034 3031 3029 3030 3030 3029 3029 3029 3028 3028 3028 3028 3028 3026 3025 3027 3026 3021 3021 3023 3022 3021 3021 3014 3007 3009 3012 3009 3006 3005 3003 3003 3003 3001 3000 3000 2997 2993 2994 2996 2994 2991 2989 2987 2983 2980 2978 2974 2971 2968 2963 2959 2954 2949
3028 3030 3033 3032 3028 3028 3028 3027 3031 3029 3019 3016 3020 3024 3026 3025 3027 3034 3031 3025 3025 3027 3028 3030 3032 3032 3031 3029 3026 3025 3028 3030 3028 3027 3028 3026 3025 3026 3025 3024 3024 3023 3023 3023 3022 3022 3023 3022 3022 3026 3024 3019 3019 3020 3019 3020 3017 3003 2994 2998 3003 3001 2998 2998 2997 2997 2997 2998 2997 2994 2991 2990 2993 2992 2989 2987 2986 2983 2980 2977 2974 2970 2968 2965 2961 2956 2950 2945